Time,TemperatureF,DewpointF,PressureIn,WindDirection,WindDirectionDegrees,WindSpeedMPH,WindSpeedGustMPH,Humidity,HourlyPrecipIn,Conditions,Clouds,dailyrainin,SoftwareType,DateUTC
2013-07-24 00:02:00,62.8,55.1,29.79,North,0,0.0,0.0,76,0.00,,,0.00,WUHU216HW,2013-07-24 07:02:00,
2013-07-24 00:07:00,62.6,54.5,29.79,North,0,0.0,0.0,75,0.00,,,0.00,WUHU216HW,2013-07-24 07:07:00,
2013-07-24 00:12:00,62.6,54.5,29.79,North,0,0.0,0.0,75,0.00,,,0.00,WUHU216HW,2013-07-24 07:12:00,
2013-07-24 00:17:00,62.5,54.4,29.79,North,0,0.0,0.0,75,0.00,,,0.00,WUHU216HW,2013-07-24 07:17:00,
2013-07-24 00:22:00,62.5,54.4,29.78,North,0,0.0,0.0,75,0.00,,,0.00,WUHU216HW,2013-07-24 07:22:00,
2013-07-24 00:27:00,62.5,54.4,29.79,North,0,0.0,0.0,75,0.00,,,0.00,WUHU216HW,2013-07-24 07:27:00,
2013-07-24 00:32:00,62.3,54.2,29.78,North,0,0.0,0.0,75,0.00,,,0.00,WUHU216HW,2013-07-24 07:32:00,
2013-07-24 00:37:00,62.3,54.2,29.78,North,0,0.0,0.0,75,0.00,,,0.00,WUHU216HW,2013-07-24 07:37:00,
2013-07-24 00:42:00,62.3,54.2,29.78,North,0,0.0,0.0,75,0.00,,,0.00,WUHU216HW,2013-07-24 07:42:00,
2013-07-24 00:47:00,62.1,54.1,29.78,North,0,0.0,0.0,75,0.00,,,0.00,WUHU216HW,2013-07-24 07:47:00,
2013-07-24 00:52:00,61.9,53.9,29.78,North,0,0.0,0.0,75,0.00,,,0.00,WUHU216HW,2013-07-24 07:52:00,
2013-07-24 00:57:00,61.9,53.9,29.78,North,0,0.0,0.0,75,0.00,,,0.00,WUHU216HW,2013-07-24 07:57:00,
2013-07-24 01:02:00,61.9,53.9,29.78,North,0,0.0,0.0,75,0.00,,,0.00,WUHU216HW,2013-07-24 08:02:00,
2013-07-24 01:07:00,61.9,53.9,29.78,North,0,0.0,0.0,75,0.00,,,0.00,WUHU216HW,2013-07-24 08:07:00,
2013-07-24 01:12:00,61.7,53.7,29.78,North,0,0.0,0.0,75,0.00,,,0.00,WUHU216HW,2013-07-24 08:12:00,
2013-07-24 01:17:00,61.7,53.7,29.78,North,0,0.0,0.0,75,0.00,,,0.00,WUHU216HW,2013-07-24 08:17:00,
2013-07-24 01:22:00,61.6,53.6,29.78,North,0,0.0,0.0,75,0.00,,,0.00,WUHU216HW,2013-07-24 08:22:00,
2013-07-24 01:27:00,61.6,53.6,29.78,North,0,0.0,0.0,75,0.00,,,0.00,WUHU216HW,2013-07-24 08:27:00,
2013-07-24 01:32:00,61.4,53.4,29.78,North,0,0.0,0.0,75,0.00,,,0.00,WUHU216HW,2013-07-24 08:32:00,
2013-07-24 01:37:00,61.4,53.4,29.78,North,0,0.0,0.0,75,0.00,,,0.00,WUHU216HW,2013-07-24 08:37:00,
2013-07-24 01:42:00,61.2,53.3,29.78,North,0,0.0,0.0,75,0.00,,,0.00,WUHU216HW,2013-07-24 08:42:00,
2013-07-24 01:47:00,61.0,53.1,29.78,North,0,0.0,0.0,75,0.00,,,0.00,WUHU216HW,2013-07-24 08:47:00,
2013-07-24 01:52:00,61.0,53.1,29.78,North,0,0.0,0.0,75,0.00,,,0.00,WUHU216HW,2013-07-24 08:52:00,
2013-07-24 01:57:00,60.8,52.9,29.77,North,0,0.0,0.0,75,0.00,,,0.00,WUHU216HW,2013-07-24 08:57:00,
2013-07-24 02:02:00,60.8,52.9,29.77,North,0,0.0,0.0,75,0.00,,,0.00,WUHU216HW,2013-07-24 09:02:00,
2013-07-24 02:07:00,60.7,52.7,29.77,North,0,0.0,0.0,75,0.00,,,0.00,WUHU216HW,2013-07-24 09:07:00,
2013-07-24 02:12:00,60.5,52.6,29.77,North,0,0.0,0.0,75,0.00,,,0.00,WUHU216HW,2013-07-24 09:12:00,
2013-07-24 02:17:00,60.5,52.6,29.77,North,0,0.0,0.0,75,0.00,,,0.00,WUHU216HW,2013-07-24 09:17:00,
2013-07-24 02:22:00,60.3,52.4,29.77,North,0,0.0,0.0,75,0.00,,,0.00,WUHU216HW,2013-07-24 09:22:00,
2013-07-24 02:27:00,60.3,52.4,29.77,North,0,0.0,0.0,75,0.00,,,0.00,WUHU216HW,2013-07-24 09:27:00,
2013-07-24 02:32:00,60.1,52.2,29.77,North,0,0.0,0.0,75,0.00,,,0.00,WUHU216HW,2013-07-24 09:32:00,
2013-07-24 02:37:00,60.1,52.2,29.77,North,0,0.0,0.0,75,0.00,,,0.00,WUHU216HW,2013-07-24 09:37:00,
2013-07-24 02:42:00,59.9,52.0,29.77,North,0,0.0,0.0,75,0.00,,,0.00,WUHU216HW,2013-07-24 09:42:00,
2013-07-24 02:47:00,59.9,52.0,29.77,North,0,0.0,0.0,75,0.00,,,0.00,WUHU216HW,2013-07-24 09:47:00,
2013-07-24 02:52:00,59.8,51.8,29.77,North,0,0.0,0.0,75,0.00,,,0.00,WUHU216HW,2013-07-24 09:52:00,
2013-07-24 02:57:00,59.8,51.5,29.77,North,0,0.0,0.0,74,0.00,,,0.00,WUHU216HW,2013-07-24 09:57:00,
2013-07-24 03:02:00,59.8,51.5,29.77,North,0,0.0,0.0,74,0.00,,,0.00,WUHU216HW,2013-07-24 10:02:00,
2013-07-24 03:07:00,59.6,51.3,29.76,North,0,0.0,0.0,74,0.00,,,0.00,WUHU216HW,2013-07-24 10:07:00,
2013-07-24 03:12:00,59.6,51.3,29.77,North,0,0.0,0.0,74,0.00,,,0.00,WUHU216HW,2013-07-24 10:12:00,
2013-07-24 03:17:00,59.4,51.1,29.77,North,0,0.0,0.0,74,0.00,,,0.00,WUHU216HW,2013-07-24 10:17:00,
2013-07-24 03:22:00,59.4,51.1,29.77,North,0,0.0,0.0,74,0.00,,,0.00,WUHU216HW,2013-07-24 10:22:00,
2013-07-24 03:27:00,59.4,50.8,29.77,North,0,0.0,0.0,73,0.00,,,0.00,WUHU216HW,2013-07-24 10:27:00,
2013-07-24 03:32:00,59.4,50.8,29.77,North,0,0.0,0.0,73,0.00,,,0.00,WUHU216HW,2013-07-24 10:32:00,
2013-07-24 03:37:00,59.2,50.6,29.77,North,0,0.0,0.0,73,0.00,,,0.00,WUHU216HW,2013-07-24 10:37:00,
2013-07-24 03:42:00,59.2,50.6,29.77,North,0,0.0,0.0,73,0.00,,,0.00,WUHU216HW,2013-07-24 10:42:00,
2013-07-24 03:47:00,59.4,50.8,29.77,North,0,0.0,0.0,73,0.00,,,0.00,WUHU216HW,2013-07-24 10:47:00,
2013-07-24 03:52:00,59.2,50.6,29.77,North,0,0.0,0.0,73,0.00,,,0.00,WUHU216HW,2013-07-24 10:52:00,
2013-07-24 03:57:00,59.2,50.6,29.77,North,0,0.0,0.0,73,0.00,,,0.00,WUHU216HW,2013-07-24 10:57:00,
2013-07-24 04:02:00,59.2,50.6,29.77,North,0,0.0,0.0,73,0.00,,,0.00,WUHU216HW,2013-07-24 11:02:00,
2013-07-24 04:07:00,59.2,50.2,29.77,North,0,0.0,0.0,72,0.00,,,0.00,WUHU216HW,2013-07-24 11:07:00,
2013-07-24 04:12:00,59.2,50.2,29.77,North,0,0.0,0.0,72,0.00,,,0.00,WUHU216HW,2013-07-24 11:12:00,
2013-07-24 04:17:00,59.4,50.0,29.77,North,0,0.0,0.0,71,0.00,,,0.00,WUHU216HW,2013-07-24 11:17:00,
2013-07-24 04:22:00,59.4,50.0,29.76,North,0,0.0,0.0,71,0.00,,,0.00,WUHU216HW,2013-07-24 11:22:00,
2013-07-24 04:27:00,59.4,49.7,29.76,North,0,0.0,0.0,70,0.00,,,0.00,WUHU216HW,2013-07-24 11:27:00,
2013-07-24 04:32:00,59.4,49.7,29.76,North,0,0.0,0.0,70,0.00,,,0.00,WUHU216HW,2013-07-24 11:32:00,
2013-07-24 04:37:00,59.4,49.2,29.76,North,0,0.0,0.0,69,0.00,,,0.00,WUHU216HW,2013-07-24 11:37:00,
2013-07-24 04:42:00,59.4,48.9,29.77,North,0,0.0,0.0,68,0.00,,,0.00,WUHU216HW,2013-07-24 11:42:00,
2013-07-24 04:47:00,59.4,48.4,29.77,North,0,0.0,0.0,67,0.00,,,0.00,WUHU216HW,2013-07-24 11:47:00,
2013-07-24 04:52:00,59.4,48.4,29.77,North,0,0.0,0.0,67,0.00,,,0.00,WUHU216HW,2013-07-24 11:52:00,
2013-07-24 04:57:00,59.4,48.4,29.77,North,0,0.0,0.0,67,0.00,,,0.00,WUHU216HW,2013-07-24 11:57:00,
2013-07-24 05:02:00,59.4,48.9,29.77,North,0,0.0,0.0,68,0.00,,,0.00,WUHU216HW,2013-07-24 12:02:00,
2013-07-24 05:07:00,59.4,47.6,29.77,North,0,0.0,0.0,65,0.00,,,0.00,WUHU216HW,2013-07-24 12:07:00,
2013-07-24 05:12:00,59.2,47.9,29.77,North,0,0.0,0.0,66,0.00,,,0.00,WUHU216HW,2013-07-24 12:12:00,
2013-07-24 05:17:00,59.2,47.9,29.77,North,0,0.0,0.0,66,0.00,,,0.00,WUHU216HW,2013-07-24 12:17:00,
2013-07-24 05:22:00,59.2,47.4,29.77,North,0,0.0,0.0,65,0.00,,,0.00,WUHU216HW,2013-07-24 12:22:00,
2013-07-24 05:27:00,59.2,47.9,29.77,North,0,0.0,0.0,66,0.00,,,0.00,WUHU216HW,2013-07-24 12:27:00,
2013-07-24 05:32:00,59.4,47.2,29.77,North,0,0.0,0.0,64,0.00,,,0.00,WUHU216HW,2013-07-24 12:32:00,
2013-07-24 05:37:00,59.2,47.4,29.77,North,0,0.0,0.0,65,0.00,,,0.00,WUHU216HW,2013-07-24 12:37:00,
2013-07-24 05:42:00,59.2,46.6,29.77,North,0,0.0,0.0,63,0.00,,,0.00,WUHU216HW,2013-07-24 12:42:00,
2013-07-24 05:47:00,59.2,47.0,29.77,North,0,0.0,0.0,64,0.00,,,0.00,WUHU216HW,2013-07-24 12:47:00,
2013-07-24 05:52:00,59.2,47.4,29.77,North,0,0.0,0.0,65,0.00,,,0.00,WUHU216HW,2013-07-24 12:52:00,
2013-07-24 05:57:00,59.2,47.0,29.78,North,0,0.0,0.0,64,0.00,,,0.00,WUHU216HW,2013-07-24 12:57:00,
2013-07-24 06:02:00,59.4,47.2,29.77,North,0,0.0,0.0,64,0.00,,,0.00,WUHU216HW,2013-07-24 13:02:00,
2013-07-24 06:07:00,59.4,46.8,29.77,North,0,0.0,0.0,63,0.00,,,0.00,WUHU216HW,2013-07-24 13:07:00,
2013-07-24 06:12:00,59.4,46.4,29.78,North,0,0.0,0.0,62,0.00,,,0.00,WUHU216HW,2013-07-24 13:12:00,
2013-07-24 06:17:00,59.4,46.4,29.78,North,0,0.0,0.0,62,0.00,,,0.00,WUHU216HW,2013-07-24 13:17:00,
2013-07-24 06:22:00,59.4,46.4,29.78,North,0,0.0,0.0,62,0.00,,,0.00,WUHU216HW,2013-07-24 13:22:00,
2013-07-24 06:27:00,59.4,46.4,29.78,North,0,0.0,0.0,62,0.00,,,0.00,WUHU216HW,2013-07-24 13:27:00,
2013-07-24 06:32:00,59.4,46.8,29.78,North,0,0.0,0.0,63,0.00,,,0.00,WUHU216HW,2013-07-24 13:32:00,
2013-07-24 06:37:00,59.4,46.4,29.78,North,0,0.0,0.0,62,0.00,,,0.00,WUHU216HW,2013-07-24 13:37:00,
2013-07-24 06:42:00,59.4,46.4,29.78,North,0,0.0,0.0,62,0.00,,,0.00,WUHU216HW,2013-07-24 13:42:00,
2013-07-24 06:47:00,59.4,46.4,29.79,North,0,0.0,0.0,62,0.00,,,0.00,WUHU216HW,2013-07-24 13:47:00,
2013-07-24 06:52:00,59.6,45.7,29.79,North,0,0.0,0.0,60,0.00,,,0.00,WUHU216HW,2013-07-24 13:52:00,
2013-07-24 06:57:00,59.6,45.7,29.79,North,0,0.0,0.0,60,0.00,,,0.00,WUHU216HW,2013-07-24 13:57:00,
2013-07-24 07:02:00,59.8,45.9,29.79,North,0,0.0,0.0,60,0.00,,,0.00,WUHU216HW,2013-07-24 14:02:00,
2013-07-24 07:07:00,59.8,45.5,29.79,North,0,0.0,0.0,59,0.00,,,0.00,WUHU216HW,2013-07-24 14:07:00,
2013-07-24 07:12:00,59.8,45.9,29.79,North,0,0.0,0.0,60,0.00,,,0.00,WUHU216HW,2013-07-24 14:12:00,
2013-07-24 07:17:00,59.9,46.5,29.79,North,0,0.0,0.0,61,0.00,,,0.00,WUHU216HW,2013-07-24 14:17:00,
2013-07-24 07:22:00,60.1,46.3,29.79,North,0,0.0,0.0,60,0.00,,,0.00,WUHU216HW,2013-07-24 14:22:00,
2013-07-24 07:27:00,60.1,46.7,29.79,North,0,0.0,0.0,61,0.00,,,0.00,WUHU216HW,2013-07-24 14:27:00,
2013-07-24 07:32:00,60.3,46.9,29.79,North,0,0.0,0.0,61,0.00,,,0.00,WUHU216HW,2013-07-24 14:32:00,
2013-07-24 07:37:00,60.3,47.7,29.79,North,0,0.0,0.0,63,0.00,,,0.00,WUHU216HW,2013-07-24 14:37:00,
2013-07-24 07:42:00,60.5,48.2,29.79,North,0,0.0,0.0,64,0.00,,,0.00,WUHU216HW,2013-07-24 14:42:00,
2013-07-24 07:47:00,60.7,47.6,29.79,North,0,0.0,0.0,62,0.00,,,0.00,WUHU216HW,2013-07-24 14:47:00,
2013-07-24 07:52:00,61.0,48.0,29.79,North,0,0.0,0.0,62,0.00,,,0.00,WUHU216HW,2013-07-24 14:52:00,
2013-07-24 07:57:00,61.6,48.4,29.79,North,0,0.0,0.0,62,0.00,,,0.00,WUHU216HW,2013-07-24 14:57:00,
2013-07-24 08:02:00,62.3,50.0,29.79,North,0,0.0,0.0,64,0.00,,,0.00,WUHU216HW,2013-07-24 15:02:00,
2013-07-24 08:07:00,62.6,51.5,29.79,North,0,0.0,0.0,67,0.00,,,0.00,WUHU216HW,2013-07-24 15:07:00,
2013-07-24 08:12:00,63.0,53.1,29.79,North,0,0.0,0.0,70,0.00,,,0.00,WUHU216HW,2013-07-24 15:12:00,
2013-07-24 08:17:00,63.4,53.5,29.79,North,0,0.0,0.0,70,0.00,,,0.00,WUHU216HW,2013-07-24 15:17:00,
2013-07-24 08:22:00,63.7,54.5,29.79,North,0,0.0,0.0,72,0.00,,,0.00,WUHU216HW,2013-07-24 15:22:00,
2013-07-24 08:27:00,64.1,54.9,29.79,North,0,0.0,0.0,72,0.00,,,0.00,WUHU216HW,2013-07-24 15:27:00,
2013-07-24 08:32:00,64.4,56.0,29.80,North,0,0.0,0.0,74,0.00,,,0.00,WUHU216HW,2013-07-24 15:32:00,
2013-07-24 08:37:00,64.4,56.0,29.79,North,0,0.0,0.0,74,0.00,,,0.00,WUHU216HW,2013-07-24 15:37:00,
2013-07-24 08:42:00,65.0,56.5,29.79,North,0,0.0,0.0,74,0.00,,,0.00,WUHU216HW,2013-07-24 15:42:00,
2013-07-24 08:47:00,65.3,56.8,29.79,North,0,0.0,0.0,74,0.00,,,0.00,WUHU216HW,2013-07-24 15:47:00,
2013-07-24 08:52:00,65.7,57.5,29.79,North,0,0.0,0.0,75,0.00,,,0.00,WUHU216HW,2013-07-24 15:52:00,
2013-07-24 08:57:00,66.1,57.9,29.79,North,0,0.0,0.0,75,0.00,,,0.00,WUHU216HW,2013-07-24 15:57:00,
2013-07-24 09:02:00,66.6,58.4,29.80,North,0,0.0,0.0,75,0.00,,,0.00,WUHU216HW,2013-07-24 16:02:00,
2013-07-24 09:07:00,66.6,58.4,29.79,North,0,0.0,0.0,75,0.00,,,0.00,WUHU216HW,2013-07-24 16:07:00,
2013-07-24 09:12:00,67.1,59.0,29.79,North,0,0.0,0.0,75,0.00,,,0.00,WUHU216HW,2013-07-24 16:12:00,
2013-07-24 09:17:00,67.7,59.5,29.79,North,0,0.0,0.0,75,0.00,,,0.00,WUHU216HW,2013-07-24 16:17:00,
2013-07-24 09:22:00,67.7,59.5,29.79,North,0,0.0,0.0,75,0.00,,,0.00,WUHU216HW,2013-07-24 16:22:00,
2013-07-24 09:27:00,68.0,59.5,29.80,North,0,0.0,0.0,74,0.00,,,0.00,WUHU216HW,2013-07-24 16:27:00,
2013-07-24 09:32:00,68.0,59.5,29.80,North,0,0.0,0.0,74,0.00,,,0.00,WUHU216HW,2013-07-24 16:32:00,
2013-07-24 09:37:00,68.4,59.8,29.80,North,0,0.0,0.0,74,0.00,,,0.00,WUHU216HW,2013-07-24 16:37:00,
2013-07-24 09:42:00,68.4,59.8,29.80,North,0,0.0,0.0,74,0.00,,,0.00,WUHU216HW,2013-07-24 16:42:00,
2013-07-24 09:47:00,68.8,60.1,29.80,North,0,0.0,0.0,74,0.00,,,0.00,WUHU216HW,2013-07-24 16:47:00,
2013-07-24 09:52:00,69.1,60.0,29.80,North,0,0.0,0.0,73,0.00,,,0.00,WUHU216HW,2013-07-24 16:52:00,
2013-07-24 09:57:00,69.1,60.5,29.80,North,0,0.0,0.0,74,0.00,,,0.00,WUHU216HW,2013-07-24 16:57:00,
2013-07-24 10:02:00,69.1,60.5,29.80,North,0,0.0,0.0,74,0.00,,,0.00,WUHU216HW,2013-07-24 17:02:00,
2013-07-24 10:07:00,69.7,60.6,29.80,North,0,0.0,0.0,73,0.00,,,0.00,WUHU216HW,2013-07-24 17:07:00,
2013-07-24 10:12:00,69.8,60.8,29.80,North,0,0.0,0.0,73,0.00,,,0.00,WUHU216HW,2013-07-24 17:12:00,
2013-07-24 10:17:00,70.2,60.7,29.80,North,0,0.0,0.0,72,0.00,,,0.00,WUHU216HW,2013-07-24 17:17:00,
2013-07-24 10:22:00,70.6,61.0,29.80,North,0,0.0,0.0,72,0.00,,,0.00,WUHU216HW,2013-07-24 17:22:00,
2013-07-24 10:27:00,71.3,61.4,29.80,North,0,0.0,0.0,71,0.00,,,0.00,WUHU216HW,2013-07-24 17:27:00,
2013-07-24 10:32:00,71.3,61.4,29.80,North,0,0.0,0.0,71,0.00,,,0.00,WUHU216HW,2013-07-24 17:32:00,
2013-07-24 10:37:00,71.8,61.9,29.80,North,0,0.0,0.0,71,0.00,,,0.00,WUHU216HW,2013-07-24 17:37:00,
2013-07-24 10:42:00,72.4,61.7,29.80,North,0,0.0,0.0,69,0.00,,,0.00,WUHU216HW,2013-07-24 17:42:00,
2013-07-24 10:47:00,74.2,63.8,29.80,North,0,0.0,0.0,70,0.00,,,0.00,WUHU216HW,2013-07-24 17:47:00,
2013-07-24 10:52:00,75.8,64.4,29.80,North,0,0.0,0.0,68,0.00,,,0.00,WUHU216HW,2013-07-24 17:52:00,
2013-07-24 10:57:00,76.3,64.1,29.80,North,0,0.0,0.0,66,0.00,,,0.00,WUHU216HW,2013-07-24 17:57:00,
2013-07-24 11:02:00,75.8,63.2,29.80,North,0,0.0,0.0,65,0.00,,,0.00,WUHU216HW,2013-07-24 18:02:00,
2013-07-24 11:07:00,74.3,62.2,29.80,North,0,0.0,0.0,66,0.00,,,0.00,WUHU216HW,2013-07-24 18:07:00,
2013-07-24 11:12:00,74.2,62.5,29.80,North,0,0.0,0.0,67,0.00,,,0.00,WUHU216HW,2013-07-24 18:12:00,
2013-07-24 11:17:00,74.2,62.5,29.80,North,0,0.0,0.0,67,0.00,,,0.00,WUHU216HW,2013-07-24 18:17:00,
2013-07-24 11:22:00,74.7,63.0,29.79,North,0,0.0,0.0,67,0.00,,,0.00,WUHU216HW,2013-07-24 18:22:00,
2013-07-24 11:27:00,75.1,62.9,29.79,North,0,0.0,0.0,66,0.00,,,0.00,WUHU216HW,2013-07-24 18:27:00,
2013-07-24 11:32:00,75.2,63.1,29.79,North,0,0.0,0.0,66,0.00,,,0.00,WUHU216HW,2013-07-24 18:32:00,
2013-07-24 11:37:00,75.2,62.6,29.79,North,0,0.0,0.0,65,0.00,,,0.00,WUHU216HW,2013-07-24 18:37:00,
2013-07-24 11:42:00,75.2,62.6,29.79,North,0,0.0,0.0,65,0.00,,,0.00,WUHU216HW,2013-07-24 18:42:00,
2013-07-24 11:47:00,75.4,62.8,29.79,North,0,0.0,0.0,65,0.00,,,0.00,WUHU216HW,2013-07-24 18:47:00,
2013-07-24 11:52:00,75.6,62.6,29.79,North,0,0.0,0.0,64,0.00,,,0.00,WUHU216HW,2013-07-24 18:52:00,
2013-07-24 11:57:00,76.0,62.5,29.79,North,0,0.0,0.0,63,0.00,,,0.00,WUHU216HW,2013-07-24 18:57:00,
2013-07-24 12:02:00,76.5,62.5,29.79,North,0,0.0,0.0,62,0.00,,,0.00,WUHU216HW,2013-07-24 19:02:00,
2013-07-24 12:07:00,76.1,62.7,29.79,North,0,0.0,0.0,63,0.00,,,0.00,WUHU216HW,2013-07-24 19:07:00,
2013-07-24 12:12:00,76.3,62.8,29.79,North,0,0.0,0.0,63,0.00,,,0.00,WUHU216HW,2013-07-24 19:12:00,
2013-07-24 12:17:00,76.1,61.8,29.79,North,0,0.0,0.0,61,0.00,,,0.00,WUHU216HW,2013-07-24 19:17:00,
2013-07-24 12:22:00,76.0,62.0,29.79,North,0,0.0,0.0,62,0.00,,,0.00,WUHU216HW,2013-07-24 19:22:00,
2013-07-24 12:27:00,76.5,62.5,29.79,North,0,0.0,0.0,62,0.00,,,0.00,WUHU216HW,2013-07-24 19:27:00,
2013-07-24 12:32:00,76.7,62.2,29.78,North,0,0.0,0.0,61,0.00,,,0.00,WUHU216HW,2013-07-24 19:32:00,
2013-07-24 12:37:00,76.7,61.7,29.78,North,0,0.0,0.0,60,0.00,,,0.00,WUHU216HW,2013-07-24 19:37:00,
2013-07-24 12:42:00,77.0,61.6,29.79,North,0,0.0,0.0,59,0.00,,,0.00,WUHU216HW,2013-07-24 19:42:00,
2013-07-24 12:47:00,77.4,62.5,29.79,North,0,0.0,0.0,60,0.00,,,0.00,WUHU216HW,2013-07-24 19:47:00,
2013-07-24 12:52:00,77.6,62.1,29.79,North,0,0.0,0.0,59,0.00,,,0.00,WUHU216HW,2013-07-24 19:52:00,
2013-07-24 12:57:00,77.9,62.0,29.78,North,0,0.0,0.0,58,0.00,,,0.00,WUHU216HW,2013-07-24 19:57:00,
2013-07-24 13:02:00,77.8,61.8,29.78,North,0,0.0,0.0,58,0.00,,,0.00,WUHU216HW,2013-07-24 20:02:00,
2013-07-24 13:07:00,77.9,62.5,29.78,North,0,0.0,0.0,59,0.00,,,0.00,WUHU216HW,2013-07-24 20:07:00,
2013-07-24 13:12:00,78.5,62.5,29.78,North,0,0.0,0.0,58,0.00,,,0.00,WUHU216HW,2013-07-24 20:12:00,
2013-07-24 13:17:00,78.7,62.2,29.78,North,0,0.0,0.0,57,0.00,,,0.00,WUHU216HW,2013-07-24 20:17:00,
2013-07-24 13:22:00,78.5,61.5,29.78,North,0,0.0,0.0,56,0.00,,,0.00,WUHU216HW,2013-07-24 20:22:00,
2013-07-24 13:27:00,78.7,61.7,29.78,North,0,0.0,0.0,56,0.00,,,0.00,WUHU216HW,2013-07-24 20:27:00,
2013-07-24 13:32:00,78.7,61.7,29.78,North,0,0.0,0.0,56,0.00,,,0.00,WUHU216HW,2013-07-24 20:32:00,
2013-07-24 13:37:00,78.7,61.7,29.78,North,0,0.0,0.0,56,0.00,,,0.00,WUHU216HW,2013-07-24 20:37:00,
2013-07-24 13:42:00,78.8,61.3,29.78,North,0,0.0,0.0,55,0.00,,,0.00,WUHU216HW,2013-07-24 20:42:00,
2013-07-24 13:47:00,78.7,60.6,29.77,North,0,0.0,0.0,54,0.00,,,0.00,WUHU216HW,2013-07-24 20:47:00,
2013-07-24 13:52:00,78.5,60.4,29.77,North,0,0.0,0.0,54,0.00,,,0.00,WUHU216HW,2013-07-24 20:52:00,
2013-07-24 13:57:00,78.7,61.1,29.77,North,0,0.0,0.0,55,0.00,,,0.00,WUHU216HW,2013-07-24 20:57:00,
2013-07-24 14:02:00,79.2,61.7,29.77,North,0,0.0,0.0,55,0.00,,,0.00,WUHU216HW,2013-07-24 21:02:00,
2013-07-24 14:07:00,79.6,60.9,29.77,North,0,0.0,0.0,53,0.00,,,0.00,WUHU216HW,2013-07-24 21:07:00,
2013-07-24 14:12:00,79.9,61.7,29.77,North,0,0.0,0.0,54,0.00,,,0.00,WUHU216HW,2013-07-24 21:12:00,
2013-07-24 14:17:00,80.1,61.4,29.77,North,0,0.0,0.0,53,0.00,,,0.00,WUHU216HW,2013-07-24 21:17:00,
2013-07-24 14:22:00,80.3,61.0,29.77,North,0,0.0,0.0,52,0.00,,,0.00,WUHU216HW,2013-07-24 21:22:00,
2013-07-24 14:27:00,80.5,61.2,29.77,North,0,0.0,0.0,52,0.00,,,0.00,WUHU216HW,2013-07-24 21:27:00,
2013-07-24 14:32:00,80.8,61.5,29.76,North,0,0.0,0.0,52,0.00,,,0.00,WUHU216HW,2013-07-24 21:32:00,
2013-07-24 14:37:00,81.0,61.1,29.76,North,0,0.0,0.0,51,0.00,,,0.00,WUHU216HW,2013-07-24 21:37:00,
2013-07-24 14:42:00,81.0,61.1,29.76,North,0,0.0,0.0,51,0.00,,,0.00,WUHU216HW,2013-07-24 21:42:00,
2013-07-24 14:47:00,80.8,61.0,29.76,North,0,0.0,0.0,51,0.00,,,0.00,WUHU216HW,2013-07-24 21:47:00,
2013-07-24 14:52:00,81.0,60.7,29.76,North,0,0.0,0.0,50,0.00,,,0.00,WUHU216HW,2013-07-24 21:52:00,
2013-07-24 14:57:00,81.2,61.3,29.76,North,0,0.0,0.0,51,0.00,,,0.00,WUHU216HW,2013-07-24 21:57:00,
2013-07-24 15:02:00,81.4,61.5,29.76,North,0,0.0,0.0,51,0.00,,,0.00,WUHU216HW,2013-07-24 22:02:00,
2013-07-24 15:07:00,81.2,61.3,29.75,North,0,0.0,0.0,51,0.00,,,0.00,WUHU216HW,2013-07-24 22:07:00,
2013-07-24 15:12:00,81.0,61.1,29.75,North,0,0.0,0.0,51,0.00,,,0.00,WUHU216HW,2013-07-24 22:12:00,
2013-07-24 15:17:00,80.8,60.5,29.75,North,0,0.0,0.0,50,0.00,,,0.00,WUHU216HW,2013-07-24 22:17:00,
2013-07-24 15:22:00,80.8,61.0,29.75,North,0,0.0,0.0,51,0.00,,,0.00,WUHU216HW,2013-07-24 22:22:00,
2013-07-24 15:27:00,81.2,61.8,29.75,North,0,0.0,0.0,52,0.00,,,0.00,WUHU216HW,2013-07-24 22:27:00,
2013-07-24 15:32:00,81.7,61.8,29.75,North,0,0.0,0.0,51,0.00,,,0.00,WUHU216HW,2013-07-24 22:32:00,
2013-07-24 15:37:00,82.1,62.1,29.75,North,0,0.0,0.0,51,0.00,,,0.00,WUHU216HW,2013-07-24 22:37:00,
2013-07-24 15:42:00,82.3,61.1,29.75,North,0,0.0,0.0,49,0.00,,,0.00,WUHU216HW,2013-07-24 22:42:00,
2013-07-24 15:47:00,82.3,61.1,29.74,North,0,0.0,0.0,49,0.00,,,0.00,WUHU216HW,2013-07-24 22:47:00,
2013-07-24 15:52:00,82.3,61.1,29.74,North,0,0.0,0.0,49,0.00,,,0.00,WUHU216HW,2013-07-24 22:52:00,
2013-07-24 15:57:00,81.9,60.9,29.74,North,0,0.0,0.0,49,0.00,,,0.00,WUHU216HW,2013-07-24 22:57:00,
2013-07-24 16:02:00,81.7,61.3,29.74,North,0,0.0,0.0,50,0.00,,,0.00,WUHU216HW,2013-07-24 23:02:00,
2013-07-24 16:07:00,82.1,61.6,29.74,North,0,0.0,0.0,50,0.00,,,0.00,WUHU216HW,2013-07-24 23:07:00,
2013-07-24 16:12:00,82.1,61.0,29.74,North,0,0.0,0.0,49,0.00,,,0.00,WUHU216HW,2013-07-24 23:12:00,
2013-07-24 16:17:00,82.1,61.6,29.74,North,0,0.0,0.0,50,0.00,,,0.00,WUHU216HW,2013-07-24 23:17:00,
2013-07-24 16:22:00,81.9,60.9,29.74,North,0,0.0,0.0,49,0.00,,,0.00,WUHU216HW,2013-07-24 23:22:00,
2013-07-24 16:27:00,81.9,60.9,29.74,North,0,0.0,0.0,49,0.00,,,0.00,WUHU216HW,2013-07-24 23:27:00,
2013-07-24 16:32:00,82.1,61.0,29.74,North,0,0.0,0.0,49,0.00,,,0.00,WUHU216HW,2013-07-24 23:32:00,
2013-07-24 16:37:00,82.1,61.0,29.74,North,0,0.0,0.0,49,0.00,,,0.00,WUHU216HW,2013-07-24 23:37:00,
2013-07-24 16:42:00,82.4,61.3,29.74,North,0,0.0,0.0,49,0.00,,,0.00,WUHU216HW,2013-07-24 23:42:00,
2013-07-24 16:47:00,82.1,61.0,29.74,North,0,0.0,0.0,49,0.00,,,0.00,WUHU216HW,2013-07-24 23:47:00,
2013-07-24 16:52:00,82.1,61.0,29.74,North,0,0.0,0.0,49,0.00,,,0.00,WUHU216HW,2013-07-24 23:52:00,
2013-07-24 16:57:00,82.3,61.1,29.73,North,0,0.0,0.0,49,0.00,,,0.00,WUHU216HW,2013-07-24 23:57:00,
2013-07-24 17:02:00,82.3,60.6,29.73,North,0,0.0,0.0,48,0.00,,,0.00,WUHU216HW,2013-07-25 00:02:00,
2013-07-24 17:07:00,82.4,61.3,29.73,North,0,0.0,0.0,49,0.00,,,0.00,WUHU216HW,2013-07-25 00:07:00,
2013-07-24 17:12:00,82.8,61.7,29.73,North,0,0.0,0.0,49,0.00,,,0.00,WUHU216HW,2013-07-25 00:12:00,
2013-07-24 17:17:00,82.8,61.0,29.73,North,0,0.0,0.0,48,0.00,,,0.00,WUHU216HW,2013-07-25 00:17:00,
2013-07-24 17:22:00,82.6,60.8,29.73,North,0,0.0,0.0,48,0.00,,,0.00,WUHU216HW,2013-07-25 00:22:00,
2013-07-24 17:27:00,82.4,61.3,29.73,North,0,0.0,0.0,49,0.00,,,0.00,WUHU216HW,2013-07-25 00:27:00,
2013-07-24 17:32:00,82.4,61.3,29.73,North,0,0.0,0.0,49,0.00,,,0.00,WUHU216HW,2013-07-25 00:32:00,
2013-07-24 17:37:00,82.4,61.3,29.73,North,0,0.0,0.0,49,0.00,,,0.00,WUHU216HW,2013-07-25 00:37:00,
2013-07-24 17:42:00,81.7,60.7,29.73,North,0,0.0,0.0,49,0.00,,,0.00,WUHU216HW,2013-07-25 00:42:00,
2013-07-24 17:47:00,81.7,61.3,29.73,North,0,0.0,0.0,50,0.00,,,0.00,WUHU216HW,2013-07-25 00:47:00,
2013-07-24 17:52:00,81.4,60.9,29.73,North,0,0.0,0.0,50,0.00,,,0.00,WUHU216HW,2013-07-25 00:52:00,
2013-07-24 17:57:00,81.2,60.8,29.73,North,0,0.0,0.0,50,0.00,,,0.00,WUHU216HW,2013-07-25 00:57:00,
2013-07-24 18:02:00,81.0,61.1,29.73,North,0,0.0,0.0,51,0.00,,,0.00,WUHU216HW,2013-07-25 01:02:00,
2013-07-24 18:07:00,81.0,60.7,29.73,North,0,0.0,0.0,50,0.00,,,0.00,WUHU216HW,2013-07-25 01:07:00,
2013-07-24 18:12:00,80.8,61.0,29.73,North,0,0.0,0.0,51,0.00,,,0.00,WUHU216HW,2013-07-25 01:12:00,
2013-07-24 18:17:00,80.6,60.9,29.73,North,0,0.0,0.0,51,0.00,,,0.00,WUHU216HW,2013-07-25 01:17:00,
2013-07-24 18:22:00,80.1,60.3,29.73,North,0,0.0,0.0,51,0.00,,,0.00,WUHU216HW,2013-07-25 01:22:00,
2013-07-24 18:27:00,79.9,60.2,29.73,North,0,0.0,0.0,51,0.00,,,0.00,WUHU216HW,2013-07-25 01:27:00,
2013-07-24 18:32:00,80.1,60.3,29.73,North,0,0.0,0.0,51,0.00,,,0.00,WUHU216HW,2013-07-25 01:32:00,
2013-07-24 18:37:00,79.9,60.2,29.73,North,0,0.0,0.0,51,0.00,,,0.00,WUHU216HW,2013-07-25 01:37:00,
2013-07-24 18:42:00,79.9,60.2,29.73,North,0,0.0,0.0,51,0.00,,,0.00,WUHU216HW,2013-07-25 01:42:00,
2013-07-24 18:47:00,79.6,60.4,29.73,North,0,0.0,0.0,52,0.00,,,0.00,WUHU216HW,2013-07-25 01:47:00,
2013-07-24 18:52:00,79.4,60.2,29.73,North,0,0.0,0.0,52,0.00,,,0.00,WUHU216HW,2013-07-25 01:52:00,
2013-07-24 18:57:00,79.0,59.9,29.73,North,0,0.0,0.0,52,0.00,,,0.00,WUHU216HW,2013-07-25 01:57:00,
2013-07-24 19:03:00,78.8,59.8,29.73,North,0,0.0,0.0,52,0.00,,,0.00,WUHU216HW,2013-07-25 02:03:00,
2013-07-24 19:08:00,78.8,59.8,29.73,North,0,0.0,0.0,52,0.00,,,0.00,WUHU216HW,2013-07-25 02:08:00,
2013-07-24 19:12:00,78.7,59.6,29.73,North,0,0.0,0.0,52,0.00,,,0.00,WUHU216HW,2013-07-25 02:12:00,
2013-07-24 19:18:00,78.5,59.4,29.73,North,0,0.0,0.0,52,0.00,,,0.00,WUHU216HW,2013-07-25 02:18:00,
2013-07-24 19:23:00,78.3,59.8,29.73,North,0,0.0,0.0,53,0.00,,,0.00,WUHU216HW,2013-07-25 02:23:00,
2013-07-24 19:27:00,78.1,59.6,29.73,North,0,0.0,0.0,53,0.00,,,0.00,WUHU216HW,2013-07-25 02:27:00,
2013-07-24 19:32:00,77.8,59.2,29.73,North,0,0.0,0.0,53,0.00,,,0.00,WUHU216HW,2013-07-25 02:32:00,
2013-07-24 19:37:00,77.2,58.8,29.73,North,0,0.0,0.0,53,0.00,,,0.00,WUHU216HW,2013-07-25 02:37:00,
2013-07-24 19:42:00,76.9,59.0,29.73,North,0,0.0,0.0,54,0.00,,,0.00,WUHU216HW,2013-07-25 02:42:00,
2013-07-24 19:47:00,76.5,58.6,29.73,North,0,0.0,0.0,54,0.00,,,0.00,WUHU216HW,2013-07-25 02:47:00,
2013-07-24 19:52:00,76.1,58.8,29.73,North,0,0.0,0.0,55,0.00,,,0.00,WUHU216HW,2013-07-25 02:52:00,
2013-07-24 19:57:00,75.6,58.8,29.73,North,0,0.0,0.0,56,0.00,,,0.00,WUHU216HW,2013-07-25 02:57:00,
2013-07-24 20:02:00,75.2,58.5,29.73,North,0,0.0,0.0,56,0.00,,,0.00,WUHU216HW,2013-07-25 03:02:00,
2013-07-24 20:03:00,75.2,58.5,29.73,North,0,0.0,0.0,56,0.00,,,0.00,WUHU216HW,2013-07-25 03:03:00,
2013-07-24 20:08:00,74.9,58.6,29.74,North,0,0.0,0.0,57,0.00,,,0.00,WUHU216HW,2013-07-25 03:08:00,
2013-07-24 20:13:00,74.5,58.2,29.74,North,0,0.0,0.0,57,0.00,,,0.00,WUHU216HW,2013-07-25 03:13:00,
2013-07-24 20:18:00,73.8,58.1,29.74,North,0,0.0,0.0,58,0.00,,,0.00,WUHU216HW,2013-07-25 03:18:00,
2013-07-24 20:23:00,73.4,57.7,29.74,North,0,0.0,0.0,58,0.00,,,0.00,WUHU216HW,2013-07-25 03:23:00,
2013-07-24 20:28:00,73.1,57.9,29.74,North,0,0.0,0.0,59,0.00,,,0.00,WUHU216HW,2013-07-25 03:28:00,
2013-07-24 20:33:00,72.5,57.9,29.74,North,0,0.0,0.0,60,0.00,,,0.00,WUHU216HW,2013-07-25 03:33:00,
2013-07-24 20:38:00,72.0,57.8,29.74,North,0,0.0,0.0,61,0.00,,,0.00,WUHU216HW,2013-07-25 03:38:00,
2013-07-24 20:43:00,71.6,58.0,29.75,North,0,0.0,0.0,62,0.00,,,0.00,WUHU216HW,2013-07-25 03:43:00,
2013-07-24 20:49:00,71.1,57.4,29.74,North,0,0.0,0.0,62,0.00,,,0.00,WUHU216HW,2013-07-25 03:49:00,
2013-07-24 20:54:00,70.9,57.2,29.74,North,0,0.0,0.0,62,0.00,,,0.00,WUHU216HW,2013-07-25 03:54:00,
2013-07-24 20:59:00,70.6,57.3,29.75,North,0,0.0,0.0,63,0.00,,,0.00,WUHU216HW,2013-07-25 03:59:00,
2013-07-24 21:01:00,70.6,57.3,29.75,North,0,0.0,0.0,63,0.00,,,0.00,WUHU216HW,2013-07-25 04:01:00,
2013-07-24 21:06:00,70.2,57.1,29.75,North,0,0.0,0.0,63,0.00,,,0.00,WUHU216HW,2013-07-25 04:06:00,
2013-07-24 21:11:00,70.0,57.2,29.75,North,0,0.0,0.0,64,0.00,,,0.00,WUHU216HW,2013-07-25 04:11:00,
2013-07-24 21:16:00,69.7,56.9,29.75,North,0,0.0,0.0,64,0.00,,,0.00,WUHU216HW,2013-07-25 04:16:00,
2013-07-24 21:21:00,69.5,57.2,29.75,North,0,0.0,0.0,65,0.00,,,0.00,WUHU216HW,2013-07-25 04:21:00,
2013-07-24 21:26:00,69.1,56.8,29.75,North,0,0.0,0.0,65,0.00,,,0.00,WUHU216HW,2013-07-25 04:26:00,
2013-07-24 21:31:00,68.9,56.7,29.75,North,0,0.0,0.0,65,0.00,,,0.00,WUHU216HW,2013-07-25 04:31:00,
2013-07-24 21:36:00,68.8,56.5,29.75,North,0,0.0,0.0,65,0.00,,,0.00,WUHU216HW,2013-07-25 04:36:00,
2013-07-24 21:41:00,68.6,56.4,29.75,North,0,0.0,0.0,65,0.00,,,0.00,WUHU216HW,2013-07-25 04:41:00,
2013-07-24 21:46:00,68.6,56.4,29.76,North,0,0.0,0.0,65,0.00,,,0.00,WUHU216HW,2013-07-25 04:46:00,
2013-07-24 21:51:00,68.2,56.4,29.76,North,0,0.0,0.0,66,0.00,,,0.00,WUHU216HW,2013-07-25 04:51:00,
2013-07-24 21:56:00,68.0,56.3,29.76,North,0,0.0,0.0,66,0.00,,,0.00,WUHU216HW,2013-07-25 04:56:00,
2013-07-24 22:01:00,67.9,56.5,29.76,North,0,0.0,0.0,67,0.00,,,0.00,WUHU216HW,2013-07-25 05:01:00,
2013-07-24 22:06:00,67.5,56.2,29.76,North,0,0.0,0.0,67,0.00,,,0.00,WUHU216HW,2013-07-25 05:06:00,
2013-07-24 22:11:00,67.3,56.4,29.76,North,0,0.0,0.0,68,0.00,,,0.00,WUHU216HW,2013-07-25 05:11:00,
2013-07-24 22:16:00,67.1,56.6,29.76,North,0,0.0,0.0,69,0.00,,,0.00,WUHU216HW,2013-07-25 05:16:00,
2013-07-24 22:21:00,67.0,56.4,29.76,North,0,0.0,0.0,69,0.00,,,0.00,WUHU216HW,2013-07-25 05:21:00,
2013-07-24 22:26:00,66.8,56.3,29.76,North,0,0.0,0.0,69,0.00,,,0.00,WUHU216HW,2013-07-25 05:26:00,
2013-07-24 22:31:00,66.6,56.1,29.76,North,0,0.0,0.0,69,0.00,,,0.00,WUHU216HW,2013-07-25 05:31:00,
2013-07-24 22:36:00,66.4,56.3,29.76,North,0,0.0,0.0,70,0.00,,,0.00,WUHU216HW,2013-07-25 05:36:00,
2013-07-24 22:41:00,66.2,56.2,29.76,North,0,0.0,0.0,70,0.00,,,0.00,WUHU216HW,2013-07-25 05:41:00,
2013-07-24 22:46:00,66.2,56.2,29.76,North,0,0.0,0.0,70,0.00,,,0.00,WUHU216HW,2013-07-25 05:46:00,
2013-07-24 22:51:00,66.1,56.0,29.76,North,0,0.0,0.0,70,0.00,,,0.00,WUHU216HW,2013-07-25 05:51:00,
2013-07-24 22:56:00,65.9,55.8,29.76,North,0,0.0,0.0,70,0.00,,,0.00,WUHU216HW,2013-07-25 05:56:00,
2013-07-24 23:02:00,65.9,55.8,29.76,North,0,0.0,0.0,70,0.00,,,0.00,WUHU216HW,2013-07-25 06:02:00,
2013-07-24 23:07:00,65.5,55.5,29.76,North,0,0.0,0.0,70,0.00,,,0.00,WUHU216HW,2013-07-25 06:07:00,
2013-07-24 23:12:00,65.5,55.9,29.76,North,0,0.0,0.0,71,0.00,,,0.00,WUHU216HW,2013-07-25 06:12:00,
2013-07-24 23:17:00,65.3,55.7,29.76,North,0,0.0,0.0,71,0.00,,,0.00,WUHU216HW,2013-07-25 06:17:00,
2013-07-24 23:22:00,65.2,55.5,29.76,North,0,0.0,0.0,71,0.00,,,0.00,WUHU216HW,2013-07-25 06:22:00,
2013-07-24 23:27:00,65.0,55.4,29.76,North,0,0.0,0.0,71,0.00,,,0.00,WUHU216HW,2013-07-25 06:27:00,
2013-07-24 23:32:00,64.8,55.3,29.77,North,0,0.0,0.0,71,0.00,,,0.00,WUHU216HW,2013-07-25 06:32:00,
2013-07-24 23:37:00,64.8,55.6,29.77,North,0,0.0,0.0,72,0.00,,,0.00,WUHU216HW,2013-07-25 06:37:00,
2013-07-24 23:42:00,64.4,55.3,29.76,North,0,0.0,0.0,72,0.00,,,0.00,WUHU216HW,2013-07-25 06:42:00,
2013-07-24 23:47:00,64.3,55.4,29.76,North,0,0.0,0.0,73,0.00,,,0.00,WUHU216HW,2013-07-25 06:47:00,
2013-07-24 23:52:00,64.1,55.6,29.77,North,0,0.0,0.0,74,0.00,,,0.00,WUHU216HW,2013-07-25 06:52:00,
2013-07-24 23:57:00,63.7,55.3,29.76,North,0,0.0,0.0,74,0.00,,,0.00,WUHU216HW,2013-07-25 06:57:00,